Location: Beaurains
(50.2660°N, 2.7947°E)
Time: 22:31:28
(UTC+00:00)

Daily predictions for brighter satellites

Satellite Brightness Start Highest point End
(mag) Time Altitude Azimuth Time Altitude Azimuth Time Altitude Azimuth
NOSS 3-2 (C) 4.1 17:58:05 10° NW 18:05:18 66° NE 18:13:34 10° ESE
ISS -3.7 18:07:27 10° WSW 18:10:48 68° SSE 18:14:11 10° ENE
Lacrosse 4 Rocket 3.6 18:11:29 10° N 18:13:11 12° NNE 18:14:53 10° NE
USA 186 3.6 18:12:04 10° ESE 18:14:07 16° ENE 18:16:10 10° NNE
Cosmos 1898 Rocket 4.3 18:09:42 10° SW 18:14:47 57° WNW 18:19:56 10° NNE
Meteor 2-9 Rocket 4.5 18:11:06 10° SSW 18:16:56 83° WNW 18:22:41 10° N
Cosmos 1300 Rocket 3.9 18:16:08 10° SSE 18:20:19 44° E 18:24:34 10° NNE
Okean 1 Rocket 4.4 18:20:36 10° SE 18:23:46 19° E 18:26:58 10° NE
CENTAUR R/B 3.2 18:16:30 10° NW 18:24:23 76° NE 18:33:09 10° SE
Sich 1 Rocket 3.6 18:20:07 10° S 18:24:38 76° E 18:29:13 10° NNE
NOSS 2-2 (E) 3.5 18:21:32 10° SW 18:25:05 72° NW 18:29:16 10° NE
Cosmos 1833 Rocket 4.0 18:21:06 10° NNW 18:25:43 25° NE 18:30:12 10° E
Cosmos 2298 Rocket 4.2 18:21:33 10° S 18:26:42 52° ESE 18:31:53 10° NNE
Cosmos 1975 4.1 18:23:59 10° SSW 18:27:55 47° WNW 18:31:52 10° N
Resurs 01 Rocket 3.7 18:26:39 10° ENE 18:27:56 11° NE 18:29:12 10° NE
Iridium 4 Rocket 4.2 18:23:53 10° SSW 18:29:05 64° W 18:34:46 10° N
CSL-04 Debris 4.1 18:25:47 10° SSE 18:31:10 79° ENE 18:36:35 10° NNW
Helios 1A Rocket 4.5 18:29:08 10° S 18:33:01 40° W 18:36:58 10° NNW
CSL-04 Rocket 3.7 18:27:41 10° SSE 18:33:08 79° ENE 18:38:42 10° NNW
Cosmos 1025 Rocket 3.0 18:29:12 10° N 18:33:36 73° ENE 18:38:00 10° SSE
ATLAS 2AS CENTAUR R/B 3.8 18:28:20 10° SSE 18:34:50 29° ESE 18:41:19 10° NE
Okean 2 Rocket 3.1 18:30:25 10° S 18:34:50 63° E 18:39:16 10° NNE
Cosmos 1937 Rocket 4.4 18:29:49 10° SW 18:34:56 53° WNW 18:40:03 10° NNE
NOSS 2-2 (D) 3.4 18:31:25 10° SW 18:34:57 73° NW 18:39:03 10° NE
YAOGAN 1 2.9 18:31:24 10° S 18:35:42 70° WSW 18:40:03 10° NNW
ATLAS 3B R/B 3.3 18:30:12 10° NW 18:36:38 43° NNE 18:42:35 13° E
SWAS 4.4 18:35:06 10° NNW 18:39:26 83° ENE 18:43:43 10° SSE
Abrixas rocket 2.7 18:37:25 10° W 18:40:08 40° SSW 18:42:11 15° SE
CREW DRAGON DEMO-1 DEB 3.2 18:39:00 10° WNW 18:41:59 56° SSW 18:44:16 16° SE
Cosmos 1513 Rocket 4.4 18:36:15 10° S 18:42:26 77° E 18:48:35 10° NNE
Cosmos 1536 Rocket 3.5 18:38:55 10° N 18:43:23 70° ENE 18:47:51 10° SSE
Cosmos 1125 Rocket 3.7 18:42:15 10° S 18:47:21 49° ESE 18:52:29 10° NNE
SJ-6B 3.5 18:48:31 15° ESE 18:51:01 32° ENE 18:54:27 10° N
CZ-4 R/B 3.0 18:49:27 10° SSW 18:53:24 39° W 18:57:19 10° NNW
USA 238 DEB 4.3 18:46:35 10° NW 18:53:42 64° SW 19:01:04 10° SSE
USA 238 4.3 18:46:42 10° NW 18:53:48 65° SW 19:01:11 10° SSE
Cosmos 2150 Rocket 4.0 18:48:51 10° SSW 18:54:14 79° ESE 18:59:44 10° NNE
SJ-11-01 4.4 18:49:40 10° S 18:54:22 78° WSW 18:59:06 10° NNW
CZ-2C R/B 3.6 18:50:07 10° S 18:55:29 67° WSW 19:01:11 10° NNW
Cosmos 1674 2.7 18:51:57 10° N 18:55:48 62° ENE 18:59:35 10° SSE
Cosmos 1464 Rocket 4.0 18:49:39 10° S 18:55:48 90° NE 19:02:03 10° N
Cosmos 2026 Rocket 4.4 18:50:18 10° N 18:56:22 43° ENE 19:02:16 11° SE
Cosmos 1092 Rocket 4.1 18:50:36 10° N 18:56:39 54° ENE 19:02:43 10° SSE
Okean-O 4.5 18:53:17 10° SSW 18:57:18 33° W 19:01:21 10° NNW
Cosmos 2285 Rocket 4.1 18:52:02 10° S 18:58:06 51° ESE 19:04:14 10° NNE
MOS 1 Rocket 3.0 18:58:02 10° NNE 19:02:27 71° ESE 19:06:42 10° S
FREGAT/IRIS 3.0 19:04:41 32° ENE 19:04:44 32° ENE 19:07:07 10° N
ARGOS 3.2 19:05:40 10° SSE 19:11:02 81° WSW 19:16:28 10° NNW
CZ-2C R/B 3.0 19:07:14 10° NNE 19:12:38 46° E 19:18:00 10° S
Cosmos 1340 Rocket 3.7 19:15:11 28° E 19:15:11 28° E 19:18:32 10° NNE
Cosmos 1733 3.5 19:13:48 15° SSE 19:16:44 42° E 19:20:22 10° NNE
Cosmos 2151 Rocket 3.9 19:13:04 10° SSW 19:17:32 69° WNW 19:22:03 10° N
Lacrosse 5 rocket 2.6 19:14:07 10° WNW 19:18:11 36° N 19:20:43 20° ENE
MOS 1 4.3 19:13:05 11° SSE 19:18:28 69° ENE 19:24:10 10° NNW
Cosmos 2082 Rocket 3.1 19:13:57 10° NNW 19:18:59 32° NE 19:21:17 24° E
BREEZE-M DEB (TANK) 4.2 19:19:14 10° W 19:22:18 33° SSW 19:27:36 16° SE
DMSP B5D2-2 4.3 19:17:21 10° NNE 19:22:29 47° E 19:27:33 10° S
BREEZE-M R/B 3.9 19:13:08 10° WSW 19:23:08 57° SSE 19:24:25 35° ESE
Meteor 1-15 Rocket 4.2 19:22:34 10° S 19:28:14 89° W 19:34:04 10° NNE
Cosmos 1805 3.1 19:24:42 10° S 19:28:36 82° E 19:32:33 10° NNE
OBJECT-B 1.1 19:28:48 44° ENE 19:28:48 44° ENE 19:31:50 10° N
Ariane Rocket 3.0 19:28:06 12° SSE 19:32:53 83° WSW 19:38:01 10° NNW
SL-08 RB Rocket 4.0 19:28:25 10° S 19:32:58 67° WSW 19:37:29 10° NNW
H-2A R/B 3.3 19:29:49 10° SSW 19:34:31 40° W 19:39:22 10° NNW
Cosmos 1269 Rocket 4.1 19:30:40 10° NNW 19:36:00 81° WSW 19:39:33 22° SSE
Cosmos 1626 2.0 19:37:23 10° N 19:41:06 87° E 19:42:02 49° SSE
Okean 1-7 Rocket 4.0 19:36:59 10° N 19:41:23 44° ENE 19:41:50 43° E
Terra 4.0 19:42:51 11° NE 19:42:51 11° NE 19:43:53 10° NE
MetOp-A 4.1 19:40:20 18° SSE 19:44:26 84° WSW 19:49:50 10° NNW
USA 186 3.0 19:42:34 19° SSW 19:44:30 41° W 19:47:40 10° NNW
COSMOS 2406 3.1 19:39:31 10° NNW 19:45:15 88° ENE 19:47:55 33° SSE
Cosmos 1455 Rocket 4.2 19:47:18 28° NE 19:47:18 28° NE 19:49:54 10° NNE
Cosmos 1844 Rocket 3.4 19:41:46 10° SW 19:47:14 55° NW 19:52:45 10° NNE
ISS -3.6 19:44:19 10° W 19:47:41 67° N 19:47:47 66° N
Cosmos 2278 Rocket 2.5 19:46:02 10° S 19:51:32 42° ESE 19:56:38 10° NE
Lacrosse 4 Rocket 1.7 19:48:53 10° NNW 19:52:51 48° NE 19:52:51 48° NE
Cosmos 1844 4.3 19:49:17 10° SW 19:54:53 59° NW 20:00:28 10° NNE
Meteor 2-5 Rocket 4.2 19:49:51 10° NNW 19:55:27 62° W 20:00:46 12° S
Meteor 1-22 Rocket 4.3 19:50:12 10° S 19:56:07 81° E 20:02:15 10° NNE
Meteor 1-24 Rocket 3.8 19:52:15 10° NNW 19:57:49 75° W 20:01:37 22° S
Cosmos 909 Rocket 4.2 19:51:21 10° NW 19:57:56 60° NE 19:59:54 42° ESE
Exosat Rocket 3.9 19:54:02 10° SW 19:59:14 64° WNW 20:04:17 10° NNE
Cosmos 2266 Rocket 4.3 19:54:15 10° N 19:59:57 41° ENE 20:00:34 40° E
SL-14 R/B 3.5 19:57:07 10° NNW 20:01:02 66° W 20:01:55 49° SSW
Okean 1 Rocket 3.8 19:56:54 10° SSW 20:01:17 53° WNW 20:05:43 10° N
Meteor 2-19 Rocket 4.4 19:55:52 10° N 20:01:58 66° ENE 20:03:47 45° SE
NOSS 3-4 (A) 3.3 19:56:21 10° SW 20:02:17 80° SE 20:08:42 10° NE
NOSS 3-4 (C) 3.3 19:56:28 10° SW 20:02:23 79° SE 20:08:48 10° NE
Resurs 01 Rocket 1.5 20:03:26 67° E 20:03:35 68° ENE 20:08:02 10° N
Cosmos 1833 Rocket 2.7 20:04:39 10° NNW 20:10:20 82° WSW 20:11:54 50° SSE
Cosmos 1766 4.4 20:06:43 10° SSW 20:10:29 43° WNW 20:14:18 10° N
CZ-2C R/B 4.2 20:06:45 10° NNE 20:09:58 44° NE 20:09:58 44° NE
Cosmos 2251 Rocket 3.5 20:07:53 10° NNW 20:13:15 67° ENE 20:13:44 63° E
CENTAUR R/B 4.3 20:07:32 10° NW 20:14:54 39° WSW 20:22:00 13° S
ERS-1 Rocket 4.2 20:17:39 28° NE 20:17:39 28° NE 20:21:10 10° N
ARIANE 5 R/B 3.2 20:20:05 46° NNE 20:20:05 46° NNE 20:23:24 10° N
SPOT 3 Rocket 3.7 20:20:50 46° SSW 20:22:17 67° WSW 20:27:27 10° NNW
Cosmos 1634 Rocket 4.4 20:18:32 10° SSW 20:24:39 63° WNW 20:30:50 10° N
ATLAS 2AS CENTAUR R/B 3.0 20:17:08 10° SW 20:25:08 88° NW 20:33:01 10° NE
Resurs 1-3 4.3 20:26:18 44° SW 20:27:01 49° W 20:31:19 10° NNW
Landsat 7 4.2 20:27:58 53° NNE 20:27:58 53° NNE 20:31:55 10° N
ATLAS 3B R/B 2.9 20:20:57 10° NW 20:27:45 68° SW 20:29:50 47° S
Cosmos 1892 Rocket 4.2 20:23:53 10° NNW 20:28:05 50° W 20:28:35 47° WSW
SPOT 5 4.1 20:33:49 34° NE 20:33:49 34° NE 20:37:43 10° N
Meteor 1-21 Rocket 4.2 20:27:22 10° N 20:33:10 71° ENE 20:33:15 71° E
Cosmos 1655 Rocket 3.9 20:30:25 10° N 20:36:44 90° WNW 20:37:50 64° S
Cosmos 1461 4.1 20:35:41 10° NNW 20:39:30 43° N 20:39:30 43° N
CZ-2C R/B 4.3 20:47:50 10° N 20:52:46 34° WNW 20:57:45 10° SW
Lacrosse 5 rocket 2.8 20:53:24 10° WNW 20:56:20 40° NW 20:56:20 40° NW
MetOp-B 4.4 20:58:51 61° W 20:58:51 61° W 21:04:03 10° NNW
Cosmos 2098 Rocket 4.2 20:54:24 10° NNW 21:01:06 62° W 21:01:45 58° WSW
OBJECT-B 4.0 21:01:59 12° WNW 21:01:59 12° WNW 21:02:55 10° WNW
Cosmos 2082 Rocket 2.6 20:57:53 10° NW 21:03:08 56° W 21:03:08 56° W
Spot 2 Rocket 4.1 21:05:26 54° NW 21:05:26 54° NW 21:09:26 10° NNW
Terra 3.5 21:21:44 28° N 21:21:44 28° N 21:24:04 10° N
ATLAS CENTAUR R/B 4.3 21:27:09 10° NNW 21:27:26 11° NNW 21:27:26 11° NNW
Lacrosse 4 Rocket 4.1 21:28:02 10° WNW 21:29:10 16° WNW 21:29:10 16° WNW
Cosmos 2278 Rocket 3.3 21:33:01 27° W 21:35:27 41° NW 21:40:48 10° NNE
Resurs 01 Rocket 4.2 21:41:01 16° W 21:41:01 16° W 21:43:19 10° NW
ATLAS 2AS CENTAUR R/B 4.1 22:09:43 10° W 22:17:06 39° NNW 22:24:15 10° NE
NOSS 3-1 (C) 4.4 22:31:57 10° NW 22:37:24 55° NNW 22:37:24 55° NNW
CZ-4C R/B 4.2 22:45:17 24° NNE 22:45:17 24° NNE 22:48:05 10° NE
Cosmos 2297 Rocket 4.3 22:53:32 10° NNW 22:56:26 21° NNE 22:56:26 21° NNE
Cosmos 2369 Rocket 4.4 23:10:31 19° NNE 23:10:31 19° NNE 23:12:07 10° NNE
SL-16 R/B 4.3 23:50:37 24° NE 23:50:37 24° NE 23:54:44 10° N
